contact: severine.martini@mio.osupytheas.fr, dominique.lefevre@mio.osupytheas.fr
Project:EMSO Ligure-ouest http://www.emso-fr.org/EMSO-France
Sensor Optode, line 4330 Serial 272 
DOI : "https://doi.org/10.17882/97948" 
Title:EMSO Ligure Ouest : Data BathyDock capteur Optode - deploiement "2023-04-28"
Datetime,Profondeur,Latitude,Longitude,optode_type,serial,O2_concentration,O2_saturation,Temperature,Calibrated_Phase,Temp_Compensated_Phase,phase_blue_light,phase_red_light,Amplitude_blue_light,Amplitude_red_light,thermistor_bridge
time,m,degree_north,degree_east,1,1,umol.l-1,%,degree_C,degree,degree,degree,degree,mV,mV,mV
2023-11-08T00:00:08,2420,42.8014,5.9826,4330,272,186.932,57.259,13.316,36.006,36.586,41.174,4.588,295.3,544.2,291.0
2023-11-08T00:03:07,2420,42.8014,5.9826,4330,272,187.035,57.291,13.316,36.000,36.580,41.173,4.593,295.4,544.1,291.0
2023-11-08T00:06:07,2420,42.8014,5.9826,4330,272,186.908,57.260,13.322,36.005,36.585,41.180,4.595,295.4,544.1,290.8
2023-11-08T00:09:07,2420,42.8014,5.9826,4330,272,186.814,57.225,13.317,36.013,36.594,41.185,4.591,295.3,544.1,291.0
2023-11-08T00:12:07,2420,42.8014,5.9826,4330,272,186.807,57.225,13.319,36.013,36.593,41.181,4.589,295.4,544.1,290.9
2023-11-08T00:15:07,2420,42.8014,5.9826,4330,272,186.940,57.262,13.316,36.006,36.586,41.179,4.593,295.3,544.1,291.0
2023-11-08T00:18:07,2420,42.8014,5.9826,4330,272,186.443,57.117,13.322,36.035,36.615,41.205,4.590,295.3,544.1,290.8
2023-11-08T00:21:08,2420,42.8014,5.9826,4330,272,186.635,57.170,13.317,36.025,36.605,41.194,4.589,295.3,544.2,291.0
2023-11-08T00:24:08,2420,42.8014,5.9826,4330,272,186.559,57.146,13.316,36.031,36.611,41.207,4.597,295.3,544.2,291.0
2023-11-08T00:27:08,2420,42.8014,5.9826,4330,272,186.750,57.206,13.317,36.018,36.598,41.194,4.596,295.5,544.1,291.0
2023-11-08T00:30:08,2420,42.8014,5.9826,4330,272,186.702,57.199,13.324,36.018,36.598,41.188,4.591,295.3,544.1,290.8
2023-11-08T00:33:07,2420,42.8014,5.9826,4330,272,186.674,57.184,13.318,36.022,36.602,41.193,4.591,295.4,544.1,290.9
2023-11-08T00:36:07,2420,42.8014,5.9826,4330,272,186.541,57.143,13.319,36.031,36.611,41.204,4.594,295.4,544.1,290.9
2023-11-08T00:39:07,2420,42.8014,5.9826,4330,272,186.782,57.219,13.320,36.014,36.594,41.190,4.595,295.4,544.1,290.9
2023-11-08T00:42:07,2420,42.8014,5.9826,4330,272,186.633,57.182,13.327,36.020,36.600,41.192,4.592,295.4,544.1,290.7
2023-11-08T00:45:07,2420,42.8014,5.9826,4330,272,186.910,57.261,13.322,36.004,36.585,41.178,4.593,295.4,544.0,290.8
2023-11-08T00:48:07,2420,42.8014,5.9826,4330,272,186.553,57.154,13.325,36.027,36.607,41.197,4.590,295.4,544.1,290.7
2023-11-08T00:51:07,2420,42.8014,5.9826,4330,272,186.730,57.208,13.324,36.016,36.596,41.186,4.590,295.4,544.2,290.8
2023-11-08T00:54:08,2420,42.8014,5.9826,4330,272,186.697,57.202,13.327,36.016,36.597,41.182,4.586,295.4,544.1,290.7
2023-11-08T00:57:08,2420,42.8014,5.9826,4330,272,186.610,57.185,13.335,36.018,36.599,41.194,4.596,295.4,544.1,290.4
2023-11-08T01:00:08,2420,42.8014,5.9826,4330,272,186.583,57.163,13.324,36.025,36.605,41.198,4.593,295.4,544.0,290.8
2023-11-08T01:03:07,2420,42.8014,5.9826,4330,272,186.500,57.139,13.325,36.029,36.610,41.199,4.590,295.4,544.1,290.7
2023-11-08T01:06:07,2420,42.8014,5.9826,4330,272,186.511,57.145,13.327,36.028,36.608,41.205,4.597,295.4,544.1,290.7
2023-11-08T01:09:07,2420,42.8014,5.9826,4330,272,186.639,57.187,13.329,36.019,36.599,41.194,4.595,295.4,544.1,290.6
2023-11-08T01:12:07,2420,42.8014,5.9826,4330,272,186.679,57.190,13.322,36.019,36.600,41.190,4.590,295.4,544.1,290.8
2023-11-08T01:15:07,2420,42.8014,5.9826,4330,272,186.357,57.089,13.320,36.041,36.621,41.211,4.589,295.4,544.1,290.9
2023-11-08T01:18:07,2420,42.8014,5.9826,4330,272,186.709,57.206,13.328,36.015,36.595,41.189,4.594,295.5,544.1,290.6
2023-11-08T01:21:07,2420,42.8014,5.9826,4330,272,186.565,57.154,13.322,36.027,36.608,41.198,4.591,295.5,544.2,290.8
2023-11-08T01:24:07,2420,42.8014,5.9826,4330,272,186.519,57.139,13.321,36.031,36.611,41.203,4.592,295.4,544.1,290.9
2023-11-08T01:27:07,2420,42.8014,5.9826,4330,272,186.431,57.116,13.324,36.035,36.615,41.206,4.591,295.4,544.1,290.8
2023-11-08T01:30:08,2420,42.8014,5.9826,4330,272,186.616,57.176,13.326,36.022,36.602,41.193,4.591,295.4,544.1,290.7
2023-11-08T01:33:07,2420,42.8014,5.9826,4330,272,186.397,57.115,13.331,36.033,36.613,41.199,4.586,295.5,544.1,290.5
2023-11-08T01:36:07,2420,42.8014,5.9826,4330,272,186.456,57.130,13.329,36.031,36.611,41.201,4.589,295.4,544.0,290.6
2023-11-08T01:39:07,2420,42.8014,5.9826,4330,272,186.657,57.189,13.326,36.019,36.599,41.195,4.596,295.5,544.1,290.7
2023-11-08T01:42:07,2420,42.8014,5.9826,4330,272,186.415,57.113,13.325,36.036,36.616,41.207,4.591,295.4,544.1,290.7
2023-11-08T01:45:08,2420,42.8014,5.9826,4330,272,186.507,57.146,13.329,36.028,36.608,41.198,4.591,295.4,544.1,290.6
2023-11-08T01:48:08,2420,42.8014,5.9826,4330,272,186.442,57.137,13.337,36.028,36.608,41.194,4.586,295.4,544.0,290.3
2023-11-08T01:51:08,2420,42.8014,5.9826,4330,272,186.437,57.118,13.324,36.035,36.615,41.202,4.587,295.5,544.1,290.8
2023-11-08T01:54:08,2420,42.8014,5.9826,4330,272,186.265,57.071,13.328,36.043,36.623,41.212,4.588,295.4,544.1,290.6
2023-11-08T01:57:08,2420,42.8014,5.9826,4330,272,186.330,57.090,13.328,36.040,36.620,41.207,4.587,295.5,544.0,290.6
2023-11-08T02:00:08,2420,42.8014,5.9826,4330,272,186.331,57.096,13.332,36.038,36.618,41.204,4.587,295.5,544.0,290.5
2023-11-08T02:03:07,2420,42.8014,5.9826,4330,272,186.317,57.085,13.327,36.041,36.621,41.216,4.595,295.5,544.1,290.7
2023-11-08T02:06:07,2420,42.8014,5.9826,4330,272,186.411,57.107,13.321,36.037,36.617,41.206,4.588,295.5,544.2,290.9
2023-11-08T02:09:07,2420,42.8014,5.9826,4330,272,186.397,57.102,13.321,36.039,36.619,41.206,4.588,295.5,544.1,290.9
2023-11-08T02:12:07,2420,42.8014,5.9826,4330,272,186.545,57.144,13.318,36.030,36.611,41.202,4.591,295.4,544.2,291.0
2023-11-08T02:15:07,2420,42.8014,5.9826,4330,272,186.497,57.132,13.320,36.032,36.613,41.204,4.592,295.5,544.1,290.9
2023-11-08T02:18:07,2420,42.8014,5.9826,4330,272,186.241,57.048,13.316,36.051,36.631,41.216,4.585,295.5,544.1,291.0
2023-11-08T02:21:08,2420,42.8014,5.9826,4330,272,186.391,57.096,13.318,36.041,36.621,41.210,4.589,295.4,544.2,291.0
2023-11-08T02:24:08,2420,42.8014,5.9826,4330,272,186.628,57.168,13.317,36.026,36.606,41.198,4.592,295.5,544.2,291.0
2023-11-08T02:27:08,2420,42.8014,5.9826,4330,272,186.605,57.156,13.313,36.029,36.609,41.196,4.587,295.5,544.2,291.1
2023-11-08T02:30:08,2420,42.8014,5.9826,4330,272,186.389,57.096,13.318,36.041,36.621,41.207,4.586,295.5,544.2,291.0
2023-11-08T02:33:07,2420,42.8014,5.9826,4330,272,186.500,57.124,13.313,36.036,36.616,41.203,4.587,295.5,544.2,291.1
2023-11-08T02:36:07,2420,42.8014,5.9826,4330,272,186.573,57.151,13.317,36.029,36.609,41.198,4.590,295.5,544.1,291.0
2023-11-08T02:39:07,2420,42.8014,5.9826,4330,272,186.643,57.170,13.315,36.025,36.605,41.197,4.592,295.4,544.1,291.1
2023-11-08T02:42:07,2420,42.8014,5.9826,4330,272,186.499,57.129,13.317,36.034,36.614,41.204,4.590,295.5,544.1,291.0
2023-11-08T02:45:07,2420,42.8014,5.9826,4330,272,186.635,57.168,13.315,36.026,36.606,41.197,4.591,295.5,544.1,291.1
2023-11-08T02:48:08,2420,42.8014,5.9826,4330,272,186.428,57.114,13.323,36.036,36.616,41.208,4.592,295.5,544.1,290.8
2023-11-08T02:51:08,2420,42.8014,5.9826,4330,272,186.362,57.087,13.318,36.043,36.623,41.214,4.592,295.5,544.2,291.0
2023-11-08T02:54:08,2420,42.8014,5.9826,4330,272,186.278,57.061,13.317,36.048,36.628,41.217,4.588,295.5,544.1,291.0
2023-11-08T02:57:08,2420,42.8014,5.9826,4330,272,186.483,57.118,13.313,36.037,36.617,41.208,4.591,295.5,544.2,291.1
2023-11-08T03:00:08,2420,42.8014,5.9826,4330,272,186.644,57.175,13.318,36.024,36.604,41.195,4.591,295.5,544.1,290.9
2023-11-08T03:03:07,2420,42.8014,5.9826,4330,272,186.362,57.094,13.323,36.040,36.620,41.208,4.588,295.6,544.1,290.8
2023-11-08T03:06:07,2420,42.8014,5.9826,4330,272,186.377,57.095,13.320,36.040,36.620,41.208,4.588,295.5,544.1,290.9
2023-11-08T03:09:07,2420,42.8014,5.9826,4330,272,186.430,57.104,13.315,36.039,36.619,41.206,4.587,295.5,544.2,291.1
2023-11-08T03:12:07,2420,42.8014,5.9826,4330,272,186.418,57.100,13.314,36.040,36.620,41.209,4.589,295.6,544.2,291.1
2023-11-08T03:15:07,2420,42.8014,5.9826,4330,272,186.413,57.101,13.316,36.040,36.620,41.215,4.596,295.5,544.2,291.0
2023-11-08T03:18:07,2420,42.8014,5.9826,4330,272,186.374,57.091,13.318,36.042,36.622,41.212,4.591,295.6,544.1,291.0
2023-11-08T03:21:07,2420,42.8014,5.9826,4330,272,186.273,57.068,13.324,36.046,36.625,41.217,4.591,295.5,544.2,290.8
2023-11-08T03:24:07,2420,42.8014,5.9826,4330,272,186.211,57.035,13.313,36.055,36.635,41.225,4.590,295.5,544.1,291.1
2023-11-08T03:27:07,2420,42.8014,5.9826,4330,272,186.341,57.072,13.310,36.048,36.628,41.217,4.589,295.6,544.2,291.2
2023-11-08T03:30:08,2420,42.8014,5.9826,4330,272,186.594,57.147,13.309,36.032,36.612,41.205,4.593,295.4,544.2,291.3
2023-11-08T03:33:07,2420,42.8014,5.9826,4330,272,186.364,57.083,13.314,36.045,36.624,41.214,4.590,295.5,544.2,291.1
2023-11-08T03:36:07,2420,42.8014,5.9826,4330,272,186.407,57.097,13.314,36.041,36.621,41.207,4.586,295.4,544.2,291.1
2023-11-08T03:39:07,2420,42.8014,5.9826,4330,272,186.167,57.024,13.315,36.057,36.637,41.224,4.588,295.5,544.2,291.1
2023-11-08T03:42:08,2420,42.8014,5.9826,4330,272,186.588,57.168,13.327,36.024,36.604,41.194,4.590,295.5,544.2,290.7
2023-11-08T03:45:08,2420,42.8014,5.9826,4330,272,186.291,57.065,13.318,36.047,36.627,41.216,4.589,295.5,544.2,291.0
2023-11-08T03:48:08,2420,42.8014,5.9826,4330,272,186.536,57.132,13.311,36.034,36.614,41.205,4.591,295.6,544.2,291.2
2023-11-08T03:51:08,2420,42.8014,5.9826,4330,272,186.965,57.265,13.312,36.006,36.586,41.181,4.595,295.5,544.2,291.2
2023-11-08T03:54:08,2420,42.8014,5.9826,4330,272,186.647,57.163,13.309,36.028,36.608,41.202,4.593,295.5,544.2,291.3
2023-11-08T03:57:07,2420,42.8014,5.9826,4330,272,186.513,57.121,13.308,36.037,36.617,41.207,4.590,295.5,544.2,291.3
2023-11-08T04:00:07,2420,42.8014,5.9826,4330,272,186.745,57.206,13.319,36.017,36.597,41.193,4.596,295.5,544.3,290.9
2023-11-08T04:03:08,2420,42.8014,5.9826,4330,272,186.756,57.199,13.310,36.020,36.601,41.190,4.590,295.4,544.2,291.2
2023-11-08T04:06:08,2420,42.8014,5.9826,4330,272,186.460,57.106,13.309,36.040,36.620,41.213,4.593,295.5,544.2,291.3
2023-11-08T04:09:08,2420,42.8014,5.9826,4330,272,186.493,57.119,13.311,36.037,36.617,41.208,4.591,295.5,544.1,291.2
2023-11-08T04:12:07,2420,42.8014,5.9826,4330,272,186.398,57.090,13.311,36.043,36.623,41.208,4.585,295.5,544.2,291.2
2023-11-08T04:15:07,2420,42.8014,5.9826,4330,272,186.473,57.113,13.311,36.038,36.618,41.211,4.592,295.5,544.2,291.2
2023-11-08T04:18:07,2420,42.8014,5.9826,4330,272,186.549,57.137,13.311,36.033,36.613,41.204,4.591,295.5,544.2,291.2
2023-11-08T04:21:07,2420,42.8014,5.9826,4330,272,186.672,57.174,13.312,36.025,36.605,41.199,4.594,295.5,544.2,291.2
2023-11-08T04:24:08,2420,42.8014,5.9826,4330,272,186.442,57.105,13.313,36.040,36.620,41.208,4.588,295.5,544.2,291.1
2023-11-08T04:27:08,2420,42.8014,5.9826,4330,272,186.532,57.133,13.313,36.034,36.614,41.204,4.591,295.5,544.1,291.1
2023-11-08T04:30:08,2420,42.8014,5.9826,4330,272,186.674,57.178,13.314,36.024,36.605,41.195,4.590,295.5,544.2,291.1
2023-11-08T04:33:07,2420,42.8014,5.9826,4330,272,186.587,57.146,13.309,36.032,36.612,41.203,4.590,295.5,544.2,291.3
2023-11-08T04:36:07,2420,42.8014,5.9826,4330,272,186.482,57.116,13.311,36.038,36.618,41.205,4.587,295.5,544.1,291.2
2023-11-08T04:39:07,2420,42.8014,5.9826,4330,272,186.567,57.141,13.310,36.033,36.613,41.203,4.591,295.5,544.2,291.2
2023-11-08T04:42:07,2420,42.8014,5.9826,4330,272,186.534,57.131,13.311,36.035,36.615,41.205,4.590,295.4,544.2,291.2
2023-11-08T04:45:07,2420,42.8014,5.9826,4330,272,186.584,57.144,13.309,36.032,36.612,41.201,4.589,295.5,544.3,291.3
2023-11-08T04:48:07,2420,42.8014,5.9826,4330,272,186.773,57.205,13.311,36.019,36.599,41.188,4.589,295.5,544.2,291.2
2023-11-08T04:51:07,2420,42.8014,5.9826,4330,272,186.776,57.205,13.310,36.019,36.599,41.188,4.589,295.5,544.2,291.2
2023-11-08T04:54:07,2420,42.8014,5.9826,4330,272,186.589,57.148,13.310,36.031,36.611,41.202,4.590,295.4,544.1,291.2
2023-11-08T04:57:07,2420,42.8014,5.9826,4330,272,186.696,57.178,13.309,36.025,36.605,41.194,4.589,295.4,544.2,291.3
2023-11-08T05:00:08,2420,42.8014,5.9826,4330,272,186.732,57.192,13.311,36.022,36.602,41.196,4.594,295.4,544.2,291.2
2023-11-08T05:03:07,2420,42.8014,5.9826,4330,272,186.518,57.126,13.311,36.036,36.616,41.201,4.585,295.5,544.2,291.2
2023-11-08T05:06:07,2420,42.8014,5.9826,4330,272,186.647,57.177,13.320,36.023,36.603,41.188,4.585,295.4,544.1,290.9
2023-11-08T05:09:07,2420,42.8014,5.9826,4330,272,186.631,57.160,13.310,36.029,36.609,41.205,4.597,295.4,544.2,291.2
2023-11-08T05:12:07,2420,42.8014,5.9826,4330,272,186.607,57.155,13.312,36.029,36.609,41.201,4.591,295.5,544.2,291.2
2023-11-08T05:15:07,2420,42.8014,5.9826,4330,272,186.507,57.122,13.310,36.037,36.617,41.209,4.592,295.5,544.2,291.2
2023-11-08T05:18:07,2420,42.8014,5.9826,4330,272,186.577,57.144,13.310,36.033,36.613,41.202,4.589,295.5,544.2,291.2
2023-11-08T05:21:07,2420,42.8014,5.9826,4330,272,186.477,57.113,13.310,36.039,36.619,41.215,4.596,295.5,544.1,291.2
2023-11-08T05:24:07,2420,42.8014,5.9826,4330,272,186.567,57.143,13.312,36.031,36.612,41.206,4.594,295.5,544.2,291.2
2023-11-08T05:27:07,2420,42.8014,5.9826,4330,272,186.831,57.219,13.308,36.017,36.597,41.180,4.583,295.4,544.2,291.3
2023-11-08T05:30:08,2420,42.8014,5.9826,4330,272,186.509,57.124,13.312,36.036,36.616,41.204,4.588,295.5,544.2,291.2
2023-11-08T05:33:07,2420,42.8014,5.9826,4330,272,186.405,57.091,13.310,36.043,36.623,41.210,4.587,295.5,544.2,291.2
2023-11-08T05:36:07,2420,42.8014,5.9826,4330,272,186.771,57.201,13.309,36.021,36.601,41.198,4.597,295.4,544.2,291.3
2023-11-08T05:39:07,2420,42.8014,5.9826,4330,272,186.590,57.148,13.310,36.031,36.611,41.200,4.589,295.5,544.2,291.2
2023-11-08T05:42:07,2420,42.8014,5.9826,4330,272,186.621,57.156,13.309,36.030,36.610,41.199,4.589,295.4,544.2,291.2
2023-11-08T05:45:08,2420,42.8014,5.9826,4330,272,186.834,57.223,13.311,36.015,36.595,41.183,4.588,295.5,544.2,291.2
2023-11-08T05:48:08,2420,42.8014,5.9826,4330,272,186.778,57.204,13.310,36.019,36.600,41.193,4.594,295.5,544.2,291.2
2023-11-08T05:51:08,2420,42.8014,5.9826,4330,272,186.773,57.203,13.309,36.020,36.600,41.194,4.594,295.5,544.1,291.2
2023-11-08T05:54:08,2420,42.8014,5.9826,4330,272,186.704,57.182,13.310,36.024,36.604,41.197,4.593,295.4,544.1,291.2
2023-11-08T05:57:07,2420,42.8014,5.9826,4330,272,186.567,57.144,13.313,36.031,36.611,41.197,4.586,295.4,544.2,291.1
2023-11-08T06:00:07,2420,42.8014,5.9826,4330,272,186.620,57.156,13.310,36.030,36.610,41.199,4.589,295.4,544.2,291.2
2023-11-08T06:03:07,2420,42.8014,5.9826,4330,272,186.584,57.144,13.309,36.032,36.613,41.199,4.587,295.4,544.2,291.3
2023-11-08T06:06:07,2420,42.8014,5.9826,4330,272,186.782,57.205,13.309,36.019,36.599,41.190,4.590,295.5,544.2,291.2
2023-11-08T06:09:07,2420,42.8014,5.9826,4330,272,186.662,57.170,13.310,36.027,36.607,41.200,4.593,295.4,544.2,291.2
2023-11-08T06:12:08,2420,42.8014,5.9826,4330,272,186.490,57.120,13.312,36.037,36.617,41.208,4.591,295.5,544.2,291.1
2023-11-08T06:15:08,2420,42.8014,5.9826,4330,272,186.611,57.152,13.309,36.031,36.611,41.201,4.590,295.4,544.2,291.3
2023-11-08T06:18:08,2420,42.8014,5.9826,4330,272,186.413,57.093,13.310,36.043,36.623,41.213,4.590,295.4,544.2,291.2
2023-11-08T06:21:08,2420,42.8014,5.9826,4330,272,186.566,57.143,13.313,36.031,36.611,41.202,4.591,295.4,544.2,291.1
2023-11-08T06:24:07,2420,42.8014,5.9826,4330,272,186.660,57.171,13.312,36.026,36.606,41.199,4.593,295.4,544.2,291.2
2023-11-08T06:27:07,2420,42.8014,5.9826,4330,272,186.718,57.187,13.310,36.023,36.603,41.193,4.590,295.4,544.1,291.2
2023-11-08T06:30:07,2420,42.8014,5.9826,4330,272,186.647,57.166,13.311,36.028,36.608,41.199,4.592,295.5,544.1,291.2
2023-11-08T06:33:07,2420,42.8014,5.9826,4330,272,186.651,57.163,13.307,36.029,36.609,41.199,4.590,295.5,544.2,291.3
2023-11-08T06:36:07,2420,42.8014,5.9826,4330,272,186.626,57.156,13.309,36.030,36.610,41.201,4.591,295.3,544.2,291.3
2023-11-08T06:39:07,2420,42.8014,5.9826,4330,272,186.743,57.195,13.310,36.021,36.601,41.191,4.589,295.5,544.2,291.2
2023-11-08T06:42:07,2420,42.8014,5.9826,4330,272,186.768,57.198,13.307,36.022,36.602,41.193,4.591,295.4,544.2,291.3
2023-11-08T06:45:07,2420,42.8014,5.9826,4330,272,186.628,57.157,13.309,36.030,36.610,41.198,4.588,295.5,544.2,291.3
2023-11-08T06:48:08,2420,42.8014,5.9826,4330,272,186.460,57.109,13.311,36.039,36.619,41.210,4.591,295.5,544.3,291.2
2023-11-08T06:51:08,2420,42.8014,5.9826,4330,272,186.537,57.129,13.309,36.035,36.616,41.205,4.590,295.4,544.2,291.3
2023-11-08T06:54:08,2420,42.8014,5.9826,4330,272,186.837,57.221,13.308,36.016,36.596,41.193,4.597,295.4,544.2,291.3
2023-11-08T06:57:08,2420,42.8014,5.9826,4330,272,186.847,57.222,13.307,36.016,36.596,41.190,4.593,295.4,544.2,291.3
2023-11-08T07:00:08,2420,42.8014,5.9826,4330,272,186.643,57.164,13.310,36.027,36.607,41.199,4.591,295.5,544.3,291.2
2023-11-08T07:03:07,2420,42.8014,5.9826,4330,272,186.737,57.189,13.308,36.023,36.603,41.189,4.586,295.4,544.3,291.3
2023-11-08T07:06:07,2420,42.8014,5.9826,4330,272,186.663,57.168,13.309,36.027,36.607,41.201,4.594,295.4,544.2,291.3
2023-11-08T07:09:07,2420,42.8014,5.9826,4330,272,186.738,57.188,13.306,36.024,36.604,41.193,4.589,295.5,544.2,291.4
2023-11-08T07:12:07,2420,42.8014,5.9826,4330,272,186.560,57.139,13.311,36.033,36.613,41.204,4.591,295.4,544.3,291.2
2023-11-08T07:15:07,2420,42.8014,5.9826,4330,272,186.734,57.193,13.311,36.022,36.602,41.193,4.591,295.5,544.3,291.2
2023-11-08T07:18:08,2420,42.8014,5.9826,4330,272,186.756,57.194,13.307,36.022,36.602,41.192,4.590,295.5,544.3,291.3
2023-11-08T07:21:08,2420,42.8014,5.9826,4330,272,186.689,57.175,13.308,36.025,36.605,41.192,4.586,295.4,544.2,291.3
2023-11-08T07:24:08,2420,42.8014,5.9826,4330,272,186.652,57.166,13.310,36.027,36.607,41.197,4.590,295.5,544.3,291.2
2023-11-08T07:27:08,2420,42.8014,5.9826,4330,272,186.701,57.180,13.309,36.025,36.605,41.197,4.592,295.3,544.3,291.3
2023-11-08T07:30:08,2420,42.8014,5.9826,4330,272,186.491,57.117,13.310,36.038,36.618,41.207,4.589,295.4,544.2,291.2
2023-11-08T07:33:07,2420,42.8014,5.9826,4330,272,186.779,57.206,13.311,36.018,36.599,41.196,4.598,295.5,544.2,291.2
2023-11-08T07:36:07,2420,42.8014,5.9826,4330,272,186.840,57.222,13.308,36.016,36.596,41.186,4.590,295.4,544.2,291.3
2023-11-08T07:39:07,2420,42.8014,5.9826,4330,272,186.682,57.176,13.310,36.026,36.606,41.198,4.592,295.4,544.2,291.2
2023-11-08T07:42:07,2420,42.8014,5.9826,4330,272,186.473,57.113,13.311,36.038,36.618,41.210,4.592,295.4,544.3,291.2
2023-11-08T07:45:07,2420,42.8014,5.9826,4330,272,186.406,57.088,13.308,36.045,36.625,41.213,4.588,295.4,544.3,291.3
2023-11-08T07:48:07,2420,42.8014,5.9826,4330,272,186.643,57.162,13.309,36.028,36.608,41.201,4.593,295.4,544.3,291.3
2023-11-08T07:51:08,2420,42.8014,5.9826,4330,272,186.676,57.172,13.309,36.027,36.607,41.197,4.590,295.4,544.3,291.3
2023-11-08T07:54:08,2420,42.8014,5.9826,4330,272,186.619,57.153,13.307,36.030,36.610,41.202,4.592,295.5,544.2,291.3
2023-11-08T07:57:08,2420,42.8014,5.9826,4330,272,186.740,57.192,13.309,36.022,36.602,41.191,4.589,295.5,544.3,291.3
2023-11-08T08:00:08,2420,42.8014,5.9826,4330,272,186.711,57.180,13.307,36.025,36.605,41.195,4.589,295.5,544.2,291.3
2023-11-08T08:03:07,2420,42.8014,5.9826,4330,272,186.809,57.212,13.308,36.018,36.598,41.188,4.589,295.4,544.3,291.3
2023-11-08T08:06:07,2420,42.8014,5.9826,4330,272,186.781,57.203,13.307,36.020,36.600,41.193,4.593,295.5,544.2,291.3
2023-11-08T08:09:07,2420,42.8014,5.9826,4330,272,186.616,57.152,13.308,36.031,36.611,41.198,4.587,295.4,544.3,291.3
2023-11-08T08:12:07,2420,42.8014,5.9826,4330,272,186.633,57.157,13.307,36.030,36.610,41.201,4.592,295.4,544.3,291.3
2023-11-08T08:15:07,2420,42.8014,5.9826,4330,272,186.852,57.225,13.308,36.016,36.596,41.188,4.592,295.4,544.2,291.3
2023-11-08T08:18:07,2420,42.8014,5.9826,4330,272,186.610,57.151,13.308,36.031,36.611,41.204,4.593,295.4,544.3,291.3
2023-11-08T08:21:08,2420,42.8014,5.9826,4330,272,186.513,57.120,13.307,36.038,36.618,41.213,4.595,295.3,544.3,291.3
2023-11-08T08:24:08,2420,42.8014,5.9826,4330,272,186.637,57.160,13.308,36.029,36.609,41.199,4.590,295.4,544.2,291.3
2023-11-08T08:27:08,2420,42.8014,5.9826,4330,272,186.719,57.185,13.309,36.023,36.604,41.193,4.589,295.4,544.2,291.3
2023-11-08T08:30:08,2420,42.8014,5.9826,4330,272,186.571,57.137,13.306,36.035,36.615,41.206,4.592,295.4,544.2,291.3
2023-11-08T08:33:07,2420,42.8014,5.9826,4330,272,186.744,57.189,13.306,36.023,36.603,41.191,4.588,295.4,544.2,291.4
2023-11-08T08:36:07,2420,42.8014,5.9826,4330,272,186.450,57.102,13.308,36.041,36.621,41.206,4.585,295.4,544.3,291.3
2023-11-08T08:39:07,2420,42.8014,5.9826,4330,272,186.714,57.187,13.312,36.023,36.603,41.194,4.591,295.4,544.2,291.2
2023-11-08T08:42:07,2420,42.8014,5.9826,4330,272,186.702,57.181,13.309,36.024,36.604,41.195,4.591,295.4,544.2,291.3
2023-11-08T08:45:08,2420,42.8014,5.9826,4330,272,186.500,57.120,13.310,36.037,36.617,41.206,4.589,295.5,544.2,291.2
2023-11-08T08:48:08,2420,42.8014,5.9826,4330,272,186.372,57.079,13.309,36.046,36.626,41.213,4.587,295.4,544.2,291.3
2023-11-08T08:51:08,2420,42.8014,5.9826,4330,272,186.677,57.171,13.308,36.026,36.606,41.199,4.592,295.4,544.2,291.3
2023-11-08T08:54:08,2420,42.8014,5.9826,4330,272,186.806,57.219,13.314,36.015,36.595,41.184,4.589,295.4,544.3,291.1
2023-11-08T08:57:08,2420,42.8014,5.9826,4330,272,186.855,57.225,13.307,36.016,36.596,41.189,4.593,295.4,544.2,291.3
2023-11-08T09:00:08,2420,42.8014,5.9826,4330,272,186.746,57.194,13.309,36.022,36.602,41.194,4.592,295.5,544.3,291.3
2023-11-08T09:03:07,2420,42.8014,5.9826,4330,272,186.661,57.164,13.306,36.029,36.609,41.201,4.592,295.4,544.3,291.4
2023-11-08T09:06:07,2420,42.8014,5.9826,4330,272,186.883,57.236,13.310,36.013,36.593,41.186,4.594,295.4,544.2,291.2
2023-11-08T09:09:07,2420,42.8014,5.9826,4330,272,186.521,57.124,13.308,36.036,36.616,41.204,4.588,295.5,544.3,291.3
2023-11-08T09:12:07,2420,42.8014,5.9826,4330,272,186.681,57.174,13.309,36.026,36.606,41.201,4.595,295.5,544.2,291.3
2023-11-08T09:15:07,2420,42.8014,5.9826,4330,272,186.706,57.181,13.308,36.024,36.605,41.197,4.593,295.4,544.2,291.3
2023-11-08T09:18:07,2420,42.8014,5.9826,4330,272,186.683,57.171,13.306,36.027,36.608,41.198,4.590,295.4,544.3,291.4
2023-11-08T09:21:07,2420,42.8014,5.9826,4330,272,186.692,57.174,13.306,36.026,36.606,41.195,4.589,295.4,544.2,291.4
2023-11-08T09:24:08,2420,42.8014,5.9826,4330,272,186.740,57.190,13.308,36.023,36.603,41.193,4.589,295.5,544.3,291.3
2023-11-08T09:27:08,2420,42.8014,5.9826,4330,272,186.810,57.211,13.307,36.018,36.598,41.186,4.588,295.4,544.2,291.3
2023-11-08T09:30:08,2420,42.8014,5.9826,4330,272,186.821,57.215,13.308,36.018,36.598,41.188,4.590,295.5,544.2,291.3
2023-11-08T09:33:07,2420,42.8014,5.9826,4330,272,186.891,57.236,13.307,36.013,36.594,41.184,4.591,295.4,544.3,291.3
2023-11-08T09:36:07,2420,42.8014,5.9826,4330,272,186.700,57.177,13.307,36.026,36.606,41.194,4.589,295.4,544.3,291.3
2023-11-08T09:39:07,2420,42.8014,5.9826,4330,272,186.651,57.162,13.306,36.029,36.609,41.200,4.591,295.3,544.3,291.3
2023-11-08T09:42:07,2420,42.8014,5.9826,4330,272,186.771,57.198,13.306,36.021,36.601,41.188,4.587,295.3,544.3,291.4
2023-11-08T09:45:07,2420,42.8014,5.9826,4330,272,186.882,57.234,13.308,36.013,36.594,41.185,4.592,295.4,544.3,291.3
2023-11-08T09:48:07,2420,42.8014,5.9826,4330,272,186.867,57.230,13.309,36.014,36.594,41.187,4.593,295.4,544.2,291.3
2023-11-08T09:51:07,2420,42.8014,5.9826,4330,272,186.684,57.175,13.309,36.026,36.606,41.196,4.590,295.4,544.2,291.3
2023-11-08T09:54:07,2420,42.8014,5.9826,4330,272,186.599,57.150,13.310,36.031,36.611,41.200,4.589,295.4,544.3,291.2
2023-11-08T09:57:07,2420,42.8014,5.9826,4330,272,186.740,57.190,13.307,36.023,36.603,41.195,4.592,295.4,544.2,291.3
2023-11-08T10:00:08,2420,42.8014,5.9826,4330,272,186.547,57.131,13.308,36.036,36.616,41.207,4.591,295.4,544.3,291.3